Regional Weather Roundup
Issued by NWS

Home | Current Version | Previous Version | Graphics & Text | Print | Product List | Glossary On
Versions: 1 2 3 4 5 6 7 8 9 10 11 12 13 14 15 16 17 18 19 20 21 22 23 24 25 26 27 28 29 30 31 32 33 34 35 36 37 38 39 40 41 42 43 44 45 46 47 48 49 50
000
ASUS43 KLSX 291807
RWRMO

WEATHER SUMMARY FOR MISSOURI
NATIONAL WEATHER SERVICE SPRINGFIELD MO
100 PM CDT THU SEP 29 2016

NOTE: "FAIR" INDICATES FEW OR NO CLOUDS BELOW 12,000 FEET WITH NO
       SIGNIFICANT WEATHER AND/OR OBSTRUCTIONS TO VISIBILITY.
       CURRENT SKY AND/OR WEATHER CONDITIONS ARE NOT AVAILABLE FOR
       CHILLICOTHE AND FARMINGTON.

MOZ001>031-035>038-043-044-053-054-291900-
...NORTHERN AND WESTERN MISSOURI...

CITY           SKY/WX    TMP DP  RH WIND       PRES   REMARKS
KANSAS CTY INT FAIR      68  49  50 N13       30.37F
6HR MIN TEMP:  47; 6HR MAX TEMP:  68;

KANSAS C DTWN  FAIR      69  51  52 N5        30.35F
6HR MIN TEMP:  52; 6HR MAX TEMP:  70;

LEE`S SUMMIT   FAIR      68  49  50 N9        30.36F
6HR MIN TEMP:  50; 6HR MAX TEMP:  69;

ST JOSEPH      FAIR      70  49  47 N10       30.38F
6HR MIN TEMP:  46; 6HR MAX TEMP:  71;

CHILLICOTHE      N/A     72  48  42 VRB7      30.34F
6HR MIN TEMP:  51; 6HR MAX TEMP:  72;

KIRKSVILLE     FAIR      72  52  49 N15G21    30.30F
6HR MIN TEMP:  49; 6HR MAX TEMP:  72;


$$
MOZ066>068-077>081-088>096-101>105-291900-
...SOUTHWEST MISSOURI...

CITY           SKY/WX    TMP DP  RH WIND       PRES   REMARKS
SPRINGFIELD    FAIR      70  44  39 N12       30.29F
6HR MIN TEMP:  47; 6HR MAX TEMP:  70;

JOPLIN         FAIR      67  51  56 N7        30.34F
6HR MIN TEMP:  45; 6HR MAX TEMP:  68;

BRANSON        MOSUNNY   68  46  45 NW10G21   30.29F

$$
MOZ032>034-039>042-045>050-055>058-069>072-291900-
...CENTRAL MISSOURI...

CITY           SKY/WX    TMP DP  RH WIND       PRES   REMARKS
COLUMBIA       FAIR      72  51  47 N21       30.26F
6HR MIN TEMP:  50; 6HR MAX TEMP:  72;

JEFFERSON CITY FAIR      71  52  50 N12       30.25F
6HR MIN TEMP:  51; 6HR MAX TEMP:  71;

ROLLA          FAIR      68  52  56 NW17      30.23F
6HR MIN TEMP:  48; 6HR MAX TEMP:  69;

SEDALIA        FAIR      73  45  36 N12G24    30.31F
6HR MIN TEMP:  49; 6HR MAX TEMP:  73;

WHITEMAN AFB   SUNNY     71  48  43 N17       30.31F
OSAGE BEACH    FAIR      69  50  50 N7        30.28F

$$
MOZ051-052-059>065-291900-
...EAST CENTRAL MISSOURI...

CITY           SKY/WX    TMP DP  RH WIND       PRES   REMARKS
ST LOUIS INTL  PTSUNNY   65  53  65 NW12      30.20F
6HR MIN TEMP:  54; 6HR MAX TEMP:  65;

SPIRIT OF STL  CLOUDY    64  55  72 NW12      30.20F
6HR MIN TEMP:  53; 6HR MAX TEMP:  64;

ST CHARLES     CLOUDY    64  55  72 NW13      30.19F
6HR MIN TEMP:  54; 6HR MAX TEMP:  66;


$$
MOZ072>076-082>087-097>100-106>115-291900-
...SOUTH CENTRAL AND SOUTHEAST MISSOURI...

CITY           SKY/WX    TMP DP  RH WIND       PRES   REMARKS
CAPE GIRARDEAU CLOUDY    61  52  72 NW13      30.15F
6HR MIN TEMP:  48; 6HR MAX TEMP:  62;

FARMINGTON     CLOUDY    60  54  80 N12G20    30.21S
6HR MIN TEMP:  51; 6HR MAX TEMP:  60; 6HR PCP: TRACE;

POPLAR BLUFF   CLOUDY    71  54  54 NW20      30.16S
6HR MIN TEMP:  51; 6HR MAX TEMP:  72;

WEST PLAINS    FAIR      71  48  43 N14G22    30.25S
6HR MIN TEMP:  50; 6HR MAX TEMP:  72;


$$



USA.gov is the U.S. government's official web portal to all federal, state and local government web resources and services.